Find Starlink 2096

NORAD ID: 47376 Int'l Des: 2021-005 Owner: SPXS Country: US Constellation: starlink operational
LEOCIRCULARSTARLINK_TYPE

Live Position

Loading 3D Globe...

About Starlink 2096

Description loading...

Upcoming Passes

Passes for default location (London). Set your location on the main map for personalized predictions.

Altitude History

Loading altitude history...

Two-Line Element Set

1 47376U 21005AD 26107.33336806 .00046243 00000-0 14931-2 0 9992
2 47376 53.1592 242.9683 0001157 102.3427 211.9351 15.31692026 5889
Epoch: Apr 17, 2026 • Age: 5 hours

Current Status

Altitude 471.1 km
Velocity 7.63 km/s
Sub-Earth Point 5.75°N, 153.3°W
Launch Date Jan 20, 2021
Age 5.2 years
Type internet

Technical Details

Classification Payload
Mass 260.00 kg
Dry Mass 248.00 kg
Total Mass 260.00 kg
Length 0.20 m
Diameter 2.80 m
Span 9.00 m
Shape Box + pan
Manufacturer SPXS
Bus Type Starlink
Phase Status In Orbit
Owner/State SPXS/US

Most Searched